Regional Weather Roundup
Issued by NWS

Home | Current Version | Previous Version | Text Only | Print | Product List | Glossary On
Versions: 1 2 3 4 5 6 7 8 9 10 11 12 13 14 15 16 17 18 19 20 21 22 23 24 25 26 27 28 29 30 31 32 33 34 35 36 37 38 39 40 41 42 43 44 45 46 47 48 49 50
491
ASUS44 KLIX 301405
RWRLA
LOUISIANA WEATHER ROUNDUP
NATIONAL WEATHER SERVICE NEW ORLEANS LA
900 AM CDT TUE SEP 30 2014

NOTE: "FAIR" INDICATES FEW OR NO CLOUDS BELOW 12,000 FEET WITH NO
      SIGNIFICANT WEATHER AND/OR OBSTRUCTIONS TO VISIBILITY.
      SKY/WX - SKY CONDITION AND SIGNIFICANT WEATHER.
      TMP - AIR TEMPERATURE.    DP   - DEWPOINT TEMPERATURE.
      RH  - RELATIVE HUMIDITY.  PRES - PRESSURE.
      HX  - HEAT INDEX.         WCI  - WIND CHILL INDEX.

*  THESE STATIONS ARE NOT NWS OR FAA STATIONS AND ARE NOT UNDER
   NWS QUALITY CONTROL.

LAZ040-048-061>063-065-066-069-301500-
SOUTHEAST LOUISIANA

CITY           SKY/WX    TMP DP  RH WIND       PRES   REMARKS
N.O. AUDUBON     N/A     82  75  79 MISG        N/A
N.O. INTL ARPT MOSUNNY   80  72  76 NE8       29.90R
N.O. LAKEFRONT SUNNY     78  73  84 E7        29.91R
N.O. DOWNTOWN* FAIR      79  70  73 NE3       29.91R
SLIDELL        SUNNY     77  71  82 E5        29.90S
BATON ROUGE    SUNNY     77  71  82 CALM      29.91R
BOOTHVILLE     MOSUNNY   80  74  81 NE3       29.89S
BELLE CHASSE   MOSUNNY   78  73  84 E7        29.90R
BOGALUSA*        N/A     77  70  81 CALM      29.93S
GALLIANO*      NOT AVBL
NEW ROADS*     FAIR      75  71  88 NE3       29.91S
GONZALES*      FAIR      78  76  95 CALM      29.90S
HAMMOND*       SUNNY     79  70  73 E5        29.92S
HOUMA*         MOSUNNY  N/A N/A N/A N7        29.90R
PORT FOURCHON* CLOUDY    79  75  89 NE6       29.93R

$$

LAZ041-044-053-054-301500-
SOUTHWEST LOUISIANA

CITY           SKY/WX    TMP DP  RH WIND       PRES   REMARKS
LAKE CHARLES   SUNNY     77  74  90 E6        29.89S
LAFAYETTE      SUNNY     78  73  84 CALM      29.91R
PATTERSON      SUNNY     79  73  83 NE3       29.93R
SALT POINT       N/A     79  76  90 CALM      29.89S
NEW IBERIA     SUNNY     80  73  79 NE3       29.91R
CHENAULT AIRPK NOT AVBL

$$

LAZ027-028-301500-
CENTRAL LOUISIANA

CITY           SKY/WX    TMP DP  RH WIND       PRES   REMARKS
FORT POLK      MOSUNNY   76  72  86 E3        29.91S
ALEXANDRIA INT MOSUNNY   77  70  79 E3        29.90S
ALEXANDRIA     PTSUNNY   75  71  87 CALM      29.92S

$$

LAZ001-002-301500-
NORTHWEST LOUISIANA

CITY           SKY/WX    TMP DP  RH WIND       PRES   REMARKS
SHREVEPORT     PTSUNNY   75  65  70 SE3       29.92R
BARKSDALE AFB  CLOUDY    74  64  70 E3        29.92S
DTN SHREVEPORT CLOUDY    73  65  75 CALM      29.92S

$$

LAZ014-016-301500-
NORTHEAST LOUISIANA

CITY           SKY/WX    TMP DP  RH WIND       PRES   REMARKS
MONROE         CLOUDY    72  64  76 CALM      29.94S
TALLULAH       SUNNY     75  66  73 E3        29.94R

$$




USA.gov is the U.S. government's official web portal to all federal, state and local government web resources and services.